User: anonymous   Login
Location: Newark
(46.7000°N, 60.6000°W)
Time: 14:27:12
(UTC+00:00)
Language:

deb Explorer IX - Orbit

View from above orbital plane
View from above orbital plane
View from above satellite
View from above satellite

Ground track
Ground track

The orbit data is extracted from the following two-line orbital elements,

1    85U 61004C   20304.03602292  .00000617  00000-0  14605-3 0  9990
2    85  38.7726  54.1935 0395054 317.6431  39.4436 14.21126489950221
Epoch (UTC): 30 October 2020 00:51:52
Eccentricity: 0.0395054
inclination: 38.7726°
perigee height: 537 km
apogee height: 1106 km
right ascension of ascending node: 54.1935°
argument of perigee: 317.6431°
revolutions per day: 14.21126489
mean anomaly at epoch: 39.4436°
orbit number at epoch: 95022

The dashed part of the orbit path shows where the satellite is in the earth's shadow,  

DLR